Wind_Speed
29 28 26 25 23 27 34 62 80 85 85 81 73 56 48 55 48 64 63 61 56 53 44 45 43 39 36 35 29 31 29 30 30 29 28 27 26 25 24 23 24 23 23 23
27 25 20 24 22 22 34 58 76 85 88 91 80 86 41 61 61 58 63 67 64 54 51 42 43 46 44 40 38 37 21 26 34 39 36 32 32 32 29 30 31 28 29 29
27 24 22 22 25 25 28 48 76 86 87 96 82 72 83 56 72 74 67 64 68 56 46 46 43 33 56 42 44 45 33 44 40 41 42 42 42 39 38 36 35 37 35 33
28 23 25 23 25 25 30 39 59 83 86 96 103 97 83 66 69 79 80 74 65 61 57 50 50 54 59 46 47 44 49 41 44 48 46 46 46 43 41 39 36 33 34 34
25 24 24 24 22 28 29 27 50 69 84 89 101 103 101 91 75 76 79 79 77 71 66 65 61 59 57 55 53 54 55 59 57 53 47 47 47 47 45 41 40 37 37 35
25 25 25 19 21 27 35 31 39 58 75 88 95 100 102 101 94 81 79 80 77 79 75 71 64 73 64 50 58 62 57 55 59 58 55 54 53 51 50 49 47 45 42 42
28 28 29 22 22 29 36 35 36 48 60 82 92 95 96 102 106 103 97 86 85 82 84 79 73 73 78 62 59 62 58 48 51 59 58 58 58 56 57 54 52 52 49 50
33 32 33 30 28 34 37 40 42 43 56 57 80 92 95 98 106 106 106 98 100 98 92 89 85 83 80 82 75 75 71 65 57 54 57 60 62 58 61 62 62 59 56 58
34 34 36 33 33 34 42 45 43 45 46 56 66 67 93 96 108 108 111 107 98 102 98 97 95 95 94 91 90 87 85 80 77 74 69 63 61 64 66 65 68 68 67 65
35 36 35 37 36 38 40 46 50 48 49 49 53 62 75 90 97 105 109 111 114 104 104 102 102 103 100 99 97 95 93 92 89 80 81 78 77 74 72 70 73 74 73 72
40 39 35 37 43 39 39 42 45 48 47 50 60 60 64 76 88 98 108 111 114 114 112 111 109 108 107 105 103 101 100 96 94 88 89 85 83 83 83 81 79 80 80 80
39 37 36 41 40 42 46 46 44 51 51 57 64 76 73 75 76 95 102 107 109 108 111 117 113 111 110 109 104 105 104 100 98 97 95 90 90 92 91 90 89 90 90 89
37 38 41 39 45 50 50 45 40 31 33 50 64 79 83 80 82 83 91 103 109 109 113 117 115 113 116 116 114 110 109 103 104 100 103 102 99 97 96 96 96 98 98 97
38 40 40 45 51 48 44 32 22 25 35 65 61 59 75 82 88 90 89 93 102 111 111 105 114 114 113 115 115 119 118 115 112 105 102 102 103 103 104 105 105 105 104 101
39 36 43 51 49 44 32 23 26 55 59 65 65 59 60 71 81 94 95 93 93 98 112 118 115 113 116 113 109 115 122 121 120 119 116 114 114 111 113 114 113 113 114 115
33 39 45 45 38 37 34 17 40 56 61 66 68 51 44 54 76 85 94 96 96 92 91 102 119 121 120 121 118 116 116 120 123 124 122 122 121 122 124 121 118 117 113 115
33 37 40 43 35 28 26 14 38 50 38 42 50 51 44 50 61 73 81 92 95 96 88 85 90 97 111 122 121 120 121 123 123 123 123 119 113 118 119 120 117 118 118 119
31 31 34 32 28 20 21 37 39 41 38 30 30 29 29 33 43 53 67 79 92 97 94 86 87 86 86 91 99 106 114 118 122 127 127 125 122 116 116 118 117 119 119 120
27 26 28 19 16 14 17 21 25 27 37 35 30 24 21 21 26 34 46 62 72 83 92 94 94 95 95 97 98 97 98 99 105 113 121 125 127 126 122 118 116 117 119 120
22 22 21 18 10 18 24 24 34 34 30 20 16 9 10 13 17 22 28 35 47 57 64 70 75 80 84 86 90 95 98 99 104 106 109 109 112 116 119 121 120 120 123 126
15 17 18 17 16 11 8 8 11 10 7 6 5 3 4 9 10 15 21 28 34 40 45 50 53 58 59 59 61 63 68 71 76 87 101 106 107 108 110 113 115 116 118 120
14 15 16 18 21 19 17 16 17 17 10 6 4 1 2 4 7 10 15 21 27 31 34 37 41 46 49 51 52 52 52 55 59 64 69 75 83 91 96 100 104 107 110 111
13 15 19 19 18 20 17 16 16 15 15 15 14 8 1 3 4 7 11 14 19 23 27 30 34 38 41 45 48 50 51 53 55 56 58 60 62 65 68 70 72 74 78 79
12 15 16 17 19 19 18 18 15 14 13 12 9 9 8 7 6 4 2 3 8 12 15 19 22 25 28 32 34 37 39 41 44 47 48 50 53 54 55 58 59 61 62 62
16 15 17 20 15 15 18 15 14 13 13 12 10 8 8 7 5 4 2 1 2 4 4 6 8 11 13 16 19 22 24 27 28 31 32 34 38 38 38 43 47 49 51 54
16 18 16 16 17 18 20 16 11 14 15 14 14 14 11 9 8 8 8 7 6 7 8 11 13 17 20 23 25 26 26 29 31 33 34 37 40 39 43 46 49 53 56 59
22 24 21 22 21 24 20 20 22 18 21 21 19 19 17 15 14 14 13 13 12 13 15 11 10 11 17 23 27 31 35 38 39 40 42 46 47 47 51 52 54 55 59 63
Wind_Direction
289 293 283 279 267 267 223 201 202 197 192 189 186 176 193 199 206 213 217 220 215 205 207 213 213 217 217 225 227 230 226 221 223 223 224 227 227 224 220 216 215 217 221 226
293 300 288 271 259 240 229 204 203 197 193 194 196 199 184 194 199 208 216 218 219 215 208 212 216 219 227 233 231 238 204 233 235 238 236 232 235 238 237 240 237 233 231 235
290 313 282 264 254 251 236 221 205 202 200 198 192 194 206 202 206 209 212 210 215 213 201 211 212 214 213 230 234 227 249 249 244 245 240 240 240 240 238 238 241 241 241 239
285 302 293 279 272 263 261 236 209 208 208 203 202 209 205 208 206 209 215 217 214 211 204 200 216 210 200 209 223 230 230 223 239 245 241 240 241 242 243 237 234 232 233 239
280 283 307 279 278 259 264 234 218 214 213 211 209 211 213 211 207 209 215 219 219 216 212 208 211 224 223 227 229 234 228 230 235 236 235 238 241 240 240 236 238 235 236 242
271 283 283 319 277 253 251 249 228 216 216 216 214 218 216 216 213 207 210 220 221 220 217 213 217 218 219 231 226 224 222 227 231 234 235 238 239 239 237 239 241 239 241 244
271 273 282 287 271 253 248 250 236 233 223 217 219 220 221 219 220 220 219 220 224 222 220 219 216 221 225 216 222 223 222 224 230 231 234 239 241 242 238 238 242 242 246 250
269 270 273 277 288 262 253 246 240 236 236 230 224 222 224 223 224 223 221 221 223 226 220 222 219 220 223 224 222 226 227 227 226 230 231 237 241 244 244 242 243 247 251 253
265 267 270 272 285 279 257 249 243 243 241 241 236 232 224 226 226 225 225 220 220 218 222 223 223 225 226 226 229 232 234 237 233 235 237 244 244 246 248 247 245 249 252 254
265 267 268 274 284 276 263 258 249 241 243 245 245 242 235 229 228 230 229 224 222 222 222 226 227 228 229 230 235 239 242 244 244 240 240 241 246 250 252 251 250 250 252 256
264 267 269 278 286 276 264 261 259 256 245 245 248 245 245 239 235 232 229 230 228 229 225 225 228 230 234 234 237 240 241 244 247 247 245 244 245 247 249 252 254 256 256 257
268 272 279 288 281 278 276 272 266 260 251 246 242 245 241 240 239 235 235 233 231 230 231 227 227 229 230 235 235 238 241 245 247 249 249 248 249 251 252 253 255 255 256 258
277 286 293 287 286 287 287 283 269 260 242 249 242 243 244 243 242 240 238 237 231 232 230 231 232 233 232 233 234 236 241 243 245 246 249 251 251 252 254 256 256 257 259 261
288 294 294 291 293 293 293 284 236 161 164 225 239 242 241 240 239 240 239 239 236 232 231 231 233 234 235 234 236 238 240 241 242 242 245 247 250 253 255 256 259 259 260 263
291 295 294 298 305 303 299 284 203 176 202 222 234 246 247 240 236 237 239 238 237 237 234 231 232 233 234 236 239 242 240 240 243 244 247 249 250 251 256 257 257 259 260 261
294 297 302 306 309 303 299 275 212 204 215 221 233 255 268 248 238 236 236 237 236 237 236 236 234 235 237 236 241 243 245 245 244 243 246 249 252 253 254 256 258 260 262 263
298 306 312 311 313 296 262 241 213 232 249 264 264 268 259 251 241 239 238 234 235 238 238 237 238 238 237 237 239 243 247 248 248 248 249 251 254 257 258 260 260 261 262 264
308 317 320 315 315 302 260 248 242 243 264 292 282 274 265 251 240 236 232 232 232 234 236 237 239 241 241 242 244 244 246 249 250 251 250 251 252 254 257 258 260 263 265 267
314 327 326 326 288 267 266 268 276 294 302 291 277 265 258 249 237 232 229 228 230 232 235 236 238 240 242 245 247 247 249 250 250 252 253 254 255 255 255 257 259 261 264 266
316 328 341 336 314 250 247 261 293 283 278 276 269 267 255 244 240 238 235 232 230 231 233 237 240 243 246 249 251 252 252 252 251 252 254 255 256 258 259 261 262 262 264 266
314 327 351 355 352 350 356 320 291 298 317 324 326 311 246 226 227 229 231 234 234 233 234 236 239 241 243 245 248 250 252 253 254 254 254 254 257 260 261 264 266 268 269 269
323 341 2 6 9 5 5 15 26 33 25 16 31 22 251 245 230 227 228 230 231 232 235 237 240 242 243 246 248 250 251 253 255 256 257 258 260 262 263 265 267 268 270 272
345 1 10 14 6 10 14 15 20 25 33 42 49 54 124 193 206 218 224 232 234 235 236 239 240 243 244 247 250 253 255 257 258 260 262 264 265 266 267 267 267 269 270 273
334 337 350 9 16 8 5 13 15 13 14 20 27 35 43 51 60 68 65 271 261 257 254 255 257 258 260 261 262 264 265 266 268 268 268 269 269 269 270 272 272 272 273 274
319 329 333 333 348 5 3 2 356 354 358 3 359 352 354 357 5 14 18 14 336 325 317 298 290 279 274 272 270 269 269 270 270 270 271 273 276 277 276 275 275 276 277 277
290 310 316 321 319 330 333 330 353 356 351 343 337 336 334 335 326 313 308 315 319 336 3 343 333 320 307 297 292 289 287 287 287 283 278 275 277 277 275 275 277 279 280 282
283 291 306 298 296 307 307 311 314 317 331 331 331 332 329 320 314 306 301 293 289 291 292 297 305 320 329 332 327 316 303 295 290 287 287 285 283 283 281 279 278 277 278 280
Height
10790 10790 10788 10787 10787 10786 10789 10800 10806 10826 10853 10865 10877 10875 10880 10892 10900 10913 10923 10933 10941 10949 10958 10965 10975 10977 10980 10985 10992 10995 11000 11003 11006 11008 11009 11013 11018 11020 11020 11019 11020 11022 11024 11025
10783 10781 10782 10779 10782 10780 10784 10790 10801 10819 10836 10844 10857 10866 10866 10874 10887 10898 10910 10920 10928 10939 10947 10956 10963 10971 10971 10979 10986 10992 10994 10999 11001 11005 11005 11008 11012 11014 11015 11016 11016 11017 11017 11018
10776 10776 10772 10772 10773 10775 10777 10779 10792 10807 10821 10837 10847 10849 10854 10859 10873 10882 10896 10906 10916 10931 10937 10943 10950 10957 10967 10970 10974 10984 10990 10986 10991 10996 10998 11000 11002 11006 11007 11008 11007 11009 11011 11012
10770 10770 10765 10767 10767 10768 10769 10780 10792 10798 10807 10820 10830 10831 10839 10853 10865 10873 10884 10894 10904 10915 10921 10928 10936 10944 10949 10957 10964 10975 10972 10965 10974 10985 10988 10990 10993 10997 10999 11000 11001 11002 11002 11003
10764 10763 10761 10760 10761 10760 10763 10769 10776 10788 10797 10808 10816 10819 10825 10839 10852 10863 10874 10883 10892 10901 10906 10914 10922 10930 10937 10942 10952 10958 10961 10963 10969 10974 10977 10980 10985 10987 10990 10993 10995 10994 10994 10996
10758 10755 10754 10755 10754 10752 10752 10759 10763 10770 10778 10789 10796 10803 10811 10825 10837 10850 10862 10873 10881 10891 10896 10898 10906 10913 10920 10926 10934 10943 10949 10955 10961 10964 10965 10968 10972 10975 10978 10979 10982 10986 10987 10989
10749 10747 10746 10748 10747 10742 10746 10752 10757 10759 10763 10773 10782 10794 10803 10816 10824 10835 10847 10858 10866 10875 10883 10890 10893 10900 10906 10908 10918 10928 10935 10941 10944 10947 10950 10954 10956 10962 10965 10968 10971 10973 10976 10977
10738 10738 10739 10738 10738 10737 10738 10739 10743 10749 10756 10761 10768 10775 10783 10791 10797 10809 10821 10835 10844 10853 10867 10875 10883 10888 10895 10901 10905 10911 10920 10925 10926 10931 10936 10939 10942 10947 10952 10955 10957 10959 10961 10963
10728 10729 10728 10730 10728 10728 10727 10728 10735 10740 10744 10747 10753 10757 10764 10770 10774 10791 10800 10818 10829 10834 10846 10856 10865 10871 10878 10885 10889 10895 10901 10905 10912 10919 10923 10925 10930 10933 10936 10939 10942 10944 10945 10947
10717 10718 10720 10718 10719 10717 10715 10715 10718 10728 10737 10740 10740 10741 10745 10753 10763 10773 10784 10800 10811 10820 10832 10839 10847 10853 10862 10866 10870 10876 10881 10888 10895 10902 10906 10910 10914 10918 10921 10923 10925 10928 10929 10931
10703 10707 10711 10711 10706 10703 10701 10701 10706 10714 10727 10729 10723 10726 10728 10733 10740 10747 10761 10771 10786 10800 10812 10820 10827 10835 10843 10848 10853 10857 10863 10870 10874 10881 10887 10891 10897 10900 10904 10906 10908 10910 10912 10914
10691 10695 10699 10698 10691 10686 10683 10688 10696 10694 10701 10703 10701 10693 10703 10707 10716 10722 10730 10745 10761 10774 10786 10794 10805 10814 10820 10827 10835 10839 10845 10852 10857 10861 10867 10872 10876 10880 10884 10887 10888 10889 10892 10894
10680 10682 10685 10679 10671 10664 10663 10665 10666 10670 10680 10669 10677 10669 10679 10694 10700 10699 10707 10718 10735 10747 10760 10769 10781 10791 10797 10804 10814 10821 10825 10830 10834 10841 10845 10852 10856 10859 10861 10864 10866 10869 10871 10873
10669 10669 10665 10657 10650 10648 10646 10646 10643 10644 10649 10632 10642 10646 10655 10666 10673 10678 10683 10694 10707 10721 10734 10745 10756 10764 10775 10782 10791 10797 10803 10810 10815 10820 10825 10829 10833 10836 10839 10842 10842 10844 10846 10848
10657 10656 10650 10638 10634 10630 10627 10625 10626 10623 10621 10623 10627 10632 10636 10637 10645 10651 10660 10669 10680 10694 10710 10722 10731 10739 10751 10760 10766 10772 10778 10786 10792 10797 10802 10806 10809 10813 10813 10816 10820 10820 10821 10823
10647 10643 10636 10627 10621 10613 10608 10609 10611 10610 10610 10616 10619 10620 10617 10616 10621 10627 10634 10644 10656 10671 10684 10694 10706 10716 10727 10737 10739 10746 10753 10761 10766 10773 10779 10781 10783 10786 10788 10791 10792 10792 10799 10797
10638 10634 10624 10612 10605 10599 10602 10601 10604 10604 10607 10609 10607 10601 10597 10597 10600 10607 10614 10624 10637 10649 10663 10674 10682 10690 10702 10713 10720 10726 10728 10733 10739 10747 10750 10755 10756 10758 10762 10763 10765 10769 10771 10772
10630 10625 10618 10605 10596 10592 10593 10597 10599 10600 10598 10588 10584 10582 10580 10580 10582 10588 10596 10607 10620 10632 10645 10658 10666 10673 10680 10688 10694 10699 10704 10710 10713 10716 10723 10728 10731 10734 10737 10741 10741 10740 10741 10740
10622 10619 10611 10605 10597 10591 10587 10586 10588 10585 10581 10579 10577 10573 10571 10573 10575 10580 10588 10598 10608 10621 10632 10642 10649 10656 10661 10667 10674 10680 10684 10687 10691 10693 10695 10701 10704 10708 10712 10716 10719 10719 10714 10711
10616 10614 10610 10603 10600 10597 10592 10588 10586 10586 10581 10575 10571 10568 10568 10570 10573 10578 10584 10591 10600 10610 10618 10626 10633 10638 10644 10647 10651 10656 10661 10665 10669 10670 10671 10678 10681 10682 10685 10686 10690 10694 10689 10686
10612 10609 10607 10603 10598 10595 10592 10588 10584 10578 10573 10571 10569 10568 10571 10573 10574 10577 10583 10589 10595 10602 10608 10614 10619 10623 10628 10630 10633 10637 10640 10644 10646 10647 10650 10655 10657 10659 10660 10660 10662 10662 10660 10659
10609 10606 10603 10600 10597 10594 10589 10585 10582 10578 10575 10573 10572 10573 10575 10575 10577 10579 10582 10586 10589 10594 10598 10603 10607 10610 10614 10617 10620 10622 10624 10626 10628 10629 10631 10631 10633 10636 10639 10639 10638 10636 10632 10630
10609 10606 10603 10600 10598 10595 10593 10590 10587 10585 10582 10580 10579 10578 10578 10578 10579 10580 10582 10583 10585 10588 10591 10594 10596 10598 10601 10604 10606 10609 10610 10611 10612 10613 10614 10615 10616 10616 10616 10616 10616 10613 10608 10607
10608 10606 10603 10600 10598 10595 10593 10591 10589 10587 10585 10585 10585 10583 10581 10580 10580 10581 10582 10583 10584 10586 10588 10589 10591 10591 10592 10594 10595 10596 10596 10597 10597 10598 10599 10598 10598 10599 10598 10595 10592 10590 10589 10588
10604 10603 10602 10600 10598 10596 10594 10591 10590 10588 10587 10586 10585 10584 10583 10582 10581 10581 10582 10582 10583 10584 10586 10587 10588 10588 10589 10588 10589 10589 10589 10588 10587 10586 10586 10585 10582 10583 10582 10576 10574 10572 10570 10567
10599 10599 10597 10595 10594 10593 10592 10590 10587 10585 10584 10583 10583 10582 10582 10581 10580 10579 10579 10579 10580 10579 10580 10580 10580 10581 10581 10581 10580 10580 10579 10577 10577 10575 10574 10572 10571 10572 10567 10565 10562 10558 10555 10551
10593 10593 10593 10591 10590 10590 10589 10588 10586 10583 10582 10582 10582 10581 10581 10580 10580 10578 10577 10576 10576 10574 10573 10575 10574 10573 10571 10570 10569 10568 10567 10565 10563 10562 10560 10556 10555 10554 10549 10547 10546 10544 10541 10535